| time (UTC) | temp F | wind direction | speed knots | gust knots | rain 1hr in | rain 24hr in | rain mn in | humidity % | barometer mb |
| 20260504001907 | 52 | 160 | 0.0 | 0.0 | 0.00 | 0.00 | 0.00 | 55 | |
| 20260504001404 | 53 | 180 | 0.0 | 0.9 | 0.00 | 0.00 | 0.00 | 56 | |
| 20260504000900 | 53 | 173 | 0.0 | 0.0 | 0.00 | 0.00 | 0.00 | 56 | |
| 20260504000357 | 54 | 168 | 0.0 | 0.9 | 0.00 | 0.00 | 0.00 | 55 | |
| 20260503235855 | 55 | 167 | 0.0 | 0.9 | 0.00 | 0.00 | 0.00 | 51 | |
| 20260503235353 | 56 | 162 | 0.0 | 0.9 | 0.00 | 0.00 | 0.00 | 47 | |
| 20260503234849 | 57 | 160 | 0.0 | 0.0 | 0.00 | 0.00 | 0.00 | 43 | |
| 20260503234347 | 58 | 212 | 0.9 | 1.7 | 0.00 | 0.00 | 0.00 | 40 | |
| 20260503233845 | 59 | 208 | 0.9 | 1.7 | 0.00 | 0.00 | 0.00 | 41 | |
| 20260503233341 | 62 | 202 | 1.7 | 1.7 | 0.00 | 0.00 | 0.00 | 36 | |
| 20260503232837 | 62 | 193 | 2.6 | 2.6 | 0.00 | 0.00 | 0.00 | 31 | |
| 20260503232335 | 62 | 236 | 1.7 | 5.2 | 0.00 | 0.00 | 0.00 | 35 | |
| 20260503231833 | 63 | 230 | 2.6 | 5.2 | 0.00 | 0.00 | 0.00 | 30 | |
| 20260503231330 | 64 | 219 | 1.7 | 2.6 | 0.00 | 0.00 | 0.00 | 31 | |
| 20260503230825 | 63 | 233 | 2.6 | 3.5 | 0.00 | 0.00 | 0.00 | 28 | |
| 20260503230322 | 63 | 216 | 0.9 | 2.6 | 0.00 | 0.00 | 0.00 | 31 | |
| 20260503225820 | 63 | 164 | 5.2 | 7.8 | 0.00 | 0.00 | 0.00 | 28 | |
| 20260503225316 | 62 | 172 | 1.7 | 6.1 | 0.00 | 0.00 | 0.00 | 29 | |
| 20260503224812 | 62 | 250 | 7.0 | 7.8 | 0.00 | 0.00 | 0.00 | 29 | |
| 20260503224310 | 63 | 301 | 3.5 | 7.0 | 0.00 | 0.00 | 0.00 | 29 | |
| 20260503223807 | 64 | 237 | 4.3 | 5.2 | 0.00 | 0.00 | 0.00 | 30 | |
| 20260503223305 | 64 | 222 | 3.5 | 5.2 | 0.00 | 0.00 | 0.00 | 29 | |
| 20260503222800 | 65 | 172 | 2.6 | 5.2 | 0.00 | 0.00 | 0.00 | 30 | |
| 20260503222259 | 63 | 253 | 3.5 | 3.5 | 0.00 | 0.00 | 0.00 | 31 | |
| 20260503221757 | 64 | 105 | 1.7 | 2.6 | 0.00 | 0.00 | 0.00 | 31 | |
| 20260503221254 | 64 | 245 | 2.6 | 6.1 | 0.00 | 0.00 | 0.00 | 29 | |
| 20260503220751 | 64 | 150 | 2.6 | 3.5 | 0.00 | 0.00 | 0.00 | 29 | |
| 20260503220248 | 63 | 239 | 3.5 | 6.1 | 0.00 | 0.00 | 0.00 | 30 | |
| 20260503215744 | 64 | 250 | 7.8 | 8.7 | 0.00 | 0.00 | 0.00 | 28 | |
| 20260503215242 | 65 | 226 | 7.0 | 7.8 | 0.00 | 0.00 | 0.00 | 28 | |
| 20260503214740 | 64 | 238 | 3.5 | 6.1 | 0.00 | 0.00 | 0.00 | 29 | |
| 20260503214236 | 66 | 250 | 5.2 | 7.0 | 0.00 | 0.00 | 0.00 | 29 | |
| 20260503213734 | 64 | 180 | 2.6 | 2.6 | 0.00 | 0.00 | 0.00 | 28 | |
| 20260503213231 | 63 | 233 | 1.7 | 5.2 | 0.00 | 0.00 | 0.00 | 31 | |
| 20260503212728 | 63 | 223 | 2.6 | 6.1 | 0.00 | 0.00 | 0.00 | 30 | |
| 20260503212226 | 64 | 257 | 7.0 | 8.7 | 0.00 | 0.00 | 0.00 | 29 | |
| 20260503211723 | 63 | 252 | 3.5 | 8.7 | 0.00 | 0.00 | 0.00 | 28 | |
| 20260503211219 | 63 | 255 | 7.0 | 13.0 | 0.00 | 0.00 | 0.00 | 29 | |
| 20260503210715 | 63 | 246 | 5.2 | 7.0 | 0.00 | 0.00 | 0.00 | 30 | |
| 20260503210212 | 62 | 192 | 6.1 | 9.6 | 0.00 | 0.00 | 0.00 | 29 | |
| 20260503205707 | 62 | 65 | 1.7 | 7.0 | 0.00 | 0.00 | 0.00 | 29 | |
| 20260503205204 | 62 | 64 | 3.5 | 9.6 | 0.00 | 0.00 | 0.00 | 30 | |
| 20260503204700 | 62 | 285 | 6.1 | 7.8 | 0.00 | 0.00 | 0.00 | 31 | |
| 20260503204158 | 62 | 16 | 5.2 | 8.7 | 0.00 | 0.00 | 0.00 | 29 | |
| 20260503203655 | 63 | 2 | 7.8 | 8.7 | 0.00 | 0.00 | 0.00 | 28 | |
| 20260503203153 | 62 | 217 | 0.0 | 2.6 | 0.00 | 0.00 | 0.00 | 28 | |
| 20260503202649 | 63 | 229 | 6.1 | 7.0 | 0.00 | 0.00 | 0.00 | 29 | |
| 20260503202148 | 62 | 227 | 3.5 | 5.2 | 0.00 | 0.00 | 0.00 | 30 | |
| 20260503201646 | 62 | 188 | 2.6 | 7.8 | 0.00 | 0.00 | 0.00 | 30 | |
| 20260503201143 | 62 | 337 | 4.3 | 11.3 | 0.00 | 0.00 | 0.00 | 28 | |
| 20260503200638 | 61 | 177 | 7.8 | 15.6 | 0.00 | 0.00 | 0.00 | 30 | |
| 20260503200135 | 61 | 348 | 3.5 | 3.5 | 0.00 | 0.00 | 0.00 | 30 | |
| 20260503195632 | 62 | 207 | 7.8 | 11.3 | 0.00 | 0.00 | 0.00 | 29 | |
| 20260503195129 | 61 | 130 | 4.3 | 7.0 | 0.00 | 0.00 | 0.00 | 30 | |
| 20260503194626 | 61 | 219 | 5.2 | 7.0 | 0.00 | 0.00 | 0.00 | 31 | |
| 20260503194121 | 63 | 275 | 7.8 | 13.0 | 0.00 | 0.00 | 0.00 | 31 | |
| 20260503193619 | 63 | 204 | 6.1 | 8.7 | 0.00 | 0.00 | 0.00 | 31 | |
| 20260503193114 | 63 | 188 | 3.5 | 7.0 | 0.00 | 0.00 | 0.00 | 30 | |
| 20260503192610 | 62 | 177 | 2.6 | 2.6 | 0.00 | 0.00 | 0.00 | 29 | |
| 20260503192106 | 62 | 281 | 2.6 | 7.8 | 0.00 | 0.00 | 0.00 | 30 | |
| 20260503191603 | 61 | 235 | 2.6 | 7.8 | 0.00 | 0.00 | 0.00 | 32 | |
| 20260503191059 | 61 | 242 | 7.0 | 12.2 | 0.00 | 0.00 | 0.00 | 32 | |
| 20260503190556 | 61 | 256 | 10.4 | 13.0 | 0.00 | 0.00 | 0.00 | 31 | |
| 20260503190054 | 59 | 243 | 4.3 | 6.1 | 0.00 | 0.00 | 0.00 | 33 | |
| 20260503185550 | 60 | 260 | 7.8 | 11.3 | 0.00 | 0.00 | 0.00 | 33 | |
| 20260503185050 | 64 | 250 | 4.3 | 6.1 | 0.00 | 0.00 | 0.00 | 33 | |
| 20260503184546 | 63 | 96 | 0.9 | 1.7 | 0.00 | 0.00 | 0.00 | 31 | |
| 20260503184043 | 60 | 143 | 0.9 | 5.2 | 0.00 | 0.00 | 0.00 | 33 | |
| 20260503183539 | 61 | 138 | 3.5 | 6.1 | 0.00 | 0.00 | 0.00 | 33 | |
| 20260503183037 | 59 | 170 | 0.0 | 5.2 | 0.00 | 0.00 | 0.00 | 32 | |
| 20260503182535 | 59 | 253 | 6.1 | 13.0 | 0.00 | 0.00 | 0.00 | 34 | |
| 20260503182033 | 60 | 261 | 5.2 | 7.0 | 0.00 | 0.00 | 0.00 | 33 | |
| 20260503181529 | 59 | 214 | 3.5 | 5.2 | 0.00 | 0.00 | 0.00 | 33 | |
| 20260503181025 | 59 | 251 | 6.1 | 7.0 | 0.00 | 0.00 | 0.00 | 33 | |
| 20260503180523 | 58 | 42 | 5.2 | 7.0 | 0.00 | 0.00 | 0.00 | 34 | |
| 20260503180020 | 59 | 233 | 8.7 | 13.0 | 0.00 | 0.00 | 0.00 | 36 | |
| 20260503175518 | 59 | 175 | 4.3 | 11.3 | 0.00 | 0.00 | 0.00 | 35 | |
| 20260503175014 | 57 | 279 | 7.8 | 14.8 | 0.00 | 0.00 | 0.00 | 36 | |
| 20260503174512 | 59 | 208 | 1.7 | 9.6 | 0.00 | 0.00 | 0.00 | 36 | |
| 20260503174008 | 57 | 160 | 0.0 | 2.6 | 0.00 | 0.00 | 0.00 | 36 | |
| 20260503173503 | 57 | 284 | 7.0 | 8.7 | 0.00 | 0.00 | 0.00 | 36 | |
| 20260503173000 | 56 | 263 | 6.1 | 7.8 | 0.00 | 0.00 | 0.00 | 39 | |
| 20260503172457 | 56 | 235 | 5.2 | 9.6 | 0.00 | 0.00 | 0.00 | 37 | |
| 20260503171954 | 56 | 268 | 6.1 | 13.0 | 0.00 | 0.00 | 0.00 | 38 | |
| 20260503171450 | 55 | 252 | 7.0 | 8.7 | 0.00 | 0.00 | 0.00 | 37 | |
| 20260503170948 | 55 | 247 | 5.2 | 18.2 | 0.00 | 0.00 | 0.00 | 39 | |
| 20260503170444 | 56 | 259 | 7.8 | 13.9 | 0.00 | 0.00 | 0.00 | 38 | |
| 20260503150837 | 52 | 147 | 1.7 | 5.2 | 0.00 | 0.00 | 0.00 | 40 | |
| 20260503150333 | 52 | 260 | 5.2 | 14.8 | 0.00 | 0.00 | 0.00 | 41 | |
| 20260503140257 | 50 | 9 | 2.6 | 6.1 | 0.00 | 0.00 | 0.00 | 45 | |
| 20260503131227 | 48 | 239 | 4.3 | 9.6 | 0.00 | 0.00 | 0.00 | 49 | |
| 20260503130724 | 48 | 239 | 5.2 | 11.3 | 0.00 | 0.00 | 0.00 | 49 | |
| 20260503130221 | 50 | 223 | 2.6 | 3.5 | 0.00 | 0.00 | 0.00 | 47 | |
| 20260503120147 | 45 | 261 | 7.8 | 9.6 | 0.00 | 0.00 | 0.00 | 54 | |
| 20260503110615 | 44 | 98 | 2.6 | 3.5 | 0.00 | 0.00 | 0.00 | 64 | |
| 20260503110112 | 46 | 141 | 0.0 | 0.9 | 0.00 | 0.00 | 0.00 | 62 | |
| 20260503090501 | 43 | 67 | 0.9 | 7.0 | 0.00 | 0.00 | 0.00 | 62 | |
| 20260503081428 | 44 | 225 | 3.5 | 7.0 | 0.00 | 0.00 | 0.00 | 62 | |
| 20260503080925 | 44 | 161 | 0.0 | 0.9 | 0.00 | 0.00 | 0.00 | 62 | |
| 20260503080421 | 44 | 170 | 0.9 | 2.6 | 0.00 | 0.00 | 0.00 | 60 | |
| 20260503072858 | 42 | 199 | 0.9 | 1.7 | 0.00 | 0.00 | 0.00 | 71 | |
| 20260503072355 | 42 | 168 | 0.0 | 1.7 | 0.00 | 0.00 | 0.00 | 70 | |
| 20260503071851 | 42 | 172 | 0.0 | 0.9 | 0.00 | 0.00 | 0.00 | 71 | |
| 20260503071349 | 42 | 157 | 0.0 | 0.0 | 0.00 | 0.00 | 0.00 | 72 | |
| 20260503070844 | 42 | 152 | 0.0 | 0.0 | 0.00 | 0.00 | 0.00 | 72 | |
| 20260503070343 | 42 | 191 | 1.7 | 1.7 | 0.00 | 0.00 | 0.00 | 71 | |
| 20260503060314 | 44 | 191 | 0.9 | 0.9 | 0.00 | 0.00 | 0.00 | 65 | |
| 20260503054801 | 43 | 53 | 2.6 | 2.6 | 0.00 | 0.00 | 0.00 | 66 | |
| 20260503054258 | 43 | 170 | 0.0 | 0.9 | 0.00 | 0.00 | 0.00 | 66 | |
| 20260503053756 | 44 | 86 | 0.9 | 1.7 | 0.00 | 0.00 | 0.00 | 64 | |
| 20260503053254 | 43 | 346 | 0.0 | 2.6 | 0.00 | 0.00 | 0.00 | 67 | |
| 20260503052750 | 44 | 61 | 0.9 | 0.9 | 0.00 | 0.00 | 0.00 | 72 | |
| 20260503052248 | 44 | 150 | 0.0 | 0.0 | 0.00 | 0.00 | 0.00 | 70 | |
| 20260503051742 | 45 | 149 | 0.0 | 1.7 | 0.00 | 0.00 | 0.00 | 67 | |
| 20260503051240 | 45 | 220 | 0.9 | 2.6 | 0.00 | 0.00 | 0.00 | 61 | |
| 20260503050736 | 46 | 115 | 0.0 | 0.9 | 0.00 | 0.00 | 0.00 | 59 | |
| 20260503050232 | 46 | 79 | 1.7 | 6.1 | 0.00 | 0.00 | 0.00 | 60 | |
| 20260503045730 | 45 | 154 | 1.7 | 3.5 | 0.00 | 0.00 | 0.00 | 60 | |
| 20260503045228 | 43 | 245 | 1.7 | 1.7 | 0.00 | 0.00 | 0.00 | 74 | |
| 20260503044724 | 44 | 109 | 0.0 | 1.7 | 0.00 | 0.00 | 0.00 | 69 | |
| 20260503044221 | 44 | 112 | 1.7 | 2.6 | 0.00 | 0.00 | 0.00 | 68 | |
| 20260503043718 | 45 | 185 | 0.9 | 0.9 | 0.00 | 0.00 | 0.00 | 63 | |
| 20260503043216 | 45 | 175 | 0.0 | 0.9 | 0.00 | 0.00 | 0.00 | 64 | |
| 20260503042711 | 45 | 102 | 0.0 | 0.9 | 0.00 | 0.00 | 0.00 | 62 | |
| 20260503042208 | 46 | 240 | 2.6 | 2.6 | 0.00 | 0.00 | 0.00 | 64 | |
| 20260503041704 | 47 | 83 | 0.9 | 1.7 | 0.00 | 0.00 | 0.00 | 59 | |
| 20260503041202 | 46 | 61 | 0.9 | 1.7 | 0.00 | 0.00 | 0.00 | 59 | |
| 20260503040659 | 47 | 155 | 0.0 | 0.9 | 0.00 | 0.00 | 0.00 | 60 | |
| 20260503040157 | 47 | 79 | 1.7 | 3.5 | 0.00 | 0.00 | 0.00 | 59 | |
| 20260503035653 | 47 | 102 | 0.9 | 2.6 | 0.00 | 0.00 | 0.00 | 59 | |
| 20260503035151 | 47 | 102 | 0.0 | 1.7 | 0.00 | 0.00 | 0.00 | 59 | |
| 20260503034648 | 47 | 60 | 1.7 | 7.8 | 0.00 | 0.00 | 0.00 | 58 | |
| 20260503034145 | 47 | 127 | 1.7 | 1.7 | 0.00 | 0.00 | 0.00 | 58 | |
| 20260503033642 | 48 | 224 | 1.7 | 2.6 | 0.00 | 0.00 | 0.00 | 58 | |
| 20260503033140 | 48 | 68 | 1.7 | 5.2 | 0.00 | 0.00 | 0.00 | 57 | |
| 20260503032638 | 48 | 47 | 1.7 | 2.6 | 0.00 | 0.00 | 0.00 | 56 | |
| 20260503032136 | 48 | 152 | 0.0 | 3.5 | 0.00 | 0.00 | 0.00 | 56 | |
| 20260503031633 | 49 | 134 | 0.9 | 1.7 | 0.00 | 0.00 | 0.00 | 55 | |
| 20260503031131 | 49 | 156 | 0.0 | 2.6 | 0.00 | 0.00 | 0.00 | 55 | |
| 20260503030626 | 50 | 234 | 4.3 | 6.1 | 0.00 | 0.00 | 0.00 | 54 | |
| 20260503030123 | 50 | 260 | 3.5 | 5.2 | 0.00 | 0.00 | 0.00 | 54 | |
| 20260503025620 | 50 | 263 | 2.6 | 8.7 | 0.00 | 0.00 | 0.00 | 53 | |
| 20260503025118 | 50 | 326 | 0.9 | 5.2 | 0.00 | 0.00 | 0.00 | 52 | |
| 20260503024614 | 51 | 288 | 1.7 | 7.8 | 0.00 | 0.00 | 0.00 | 51 | |
| 20260503024111 | 51 | 356 | 2.6 | 7.0 | 0.00 | 0.00 | 0.00 | 49 | |
| 20260503023609 | 51 | 240 | 2.6 | 5.2 | 0.00 | 0.00 | 0.00 | 50 | |
| 20260503023106 | 51 | 133 | 1.7 | 5.2 | 0.00 | 0.00 | 0.00 | 51 | |
| 20260503022601 | 51 | 156 | 2.6 | 3.5 | 0.00 | 0.00 | 0.00 | 49 | |
| 20260503022056 | 51 | 112 | 0.9 | 0.9 | 0.00 | 0.00 | 0.00 | 49 | |
| 20260503021553 | 52 | 48 | 1.7 | 6.1 | 0.00 | 0.00 | 0.00 | 50 | |
| 20260503021050 | 52 | 350 | 3.5 | 7.0 | 0.00 | 0.00 | 0.00 | 48 | |
| 20260503020547 | 52 | 114 | 0.9 | 2.6 | 0.00 | 0.00 | 0.00 | 48 | |
| 20260503020044 | 52 | 88 | 2.6 | 6.1 | 0.00 | 0.00 | 0.00 | 49 | |
| 20260503015541 | 52 | 164 | 0.0 | 2.6 | 0.00 | 0.00 | 0.00 | 48 | |
| 20260503015038 | 52 | 57 | 1.7 | 3.5 | 0.00 | 0.00 | 0.00 | 48 | |
| 20260503014534 | 52 | 161 | 0.0 | 3.5 | 0.00 | 0.00 | 0.00 | 49 | |
| 20260503014032 | 52 | 134 | 0.9 | 1.7 | 0.00 | 0.00 | 0.00 | 46 | |
| 20260503013529 | 53 | 52 | 1.7 | 2.6 | 0.00 | 0.00 | 0.00 | 46 | |
| 20260503013027 | 53 | 177 | 0.9 | 1.7 | 0.00 | 0.00 | 0.00 | 46 | |
| 20260503012524 | 53 | 227 | 1.7 | 1.7 | 0.00 | 0.00 | 0.00 | 44 | |
| 20260503012020 | 53 | 171 | 2.6 | 3.5 | 0.00 | 0.00 | 0.00 | 44 | |
| 20260503011517 | 53 | 280 | 3.5 | 5.2 | 0.00 | 0.00 | 0.00 | 43 | |
| 20260503011014 | 53 | 114 | 1.7 | 3.5 | 0.00 | 0.00 | 0.00 | 43 | |
| 20260503010510 | 53 | 248 | 5.2 | 8.7 | 0.00 | 0.00 | 0.00 | 43 | |
| 20260503010008 | 54 | 278 | 2.6 | 6.1 | 0.00 | 0.00 | 0.00 | 41 | |
| 20260503005505 | 54 | 268 | 3.5 | 6.1 | 0.00 | 0.00 | 0.00 | 41 | |
| 20260503005002 | 53 | 263 | 1.7 | 2.6 | 0.00 | 0.00 | 0.00 | 42 | |
| 20260503004458 | 54 | 227 | 1.7 | 3.5 | 0.00 | 0.00 | 0.00 | 43 | |
| 20260503003956 | 54 | 251 | 2.6 | 3.5 | 0.00 | 0.00 | 0.00 | 42 | |
| 20260503003452 | 54 | 198 | 1.7 | 1.7 | 0.00 | 0.00 | 0.00 | 42 | |
| 20260503002949 | 54 | 179 | 1.7 | 5.2 | 0.00 | 0.00 | 0.00 | 40 | |
| 20260503002447 | 54 | 0 | 5.2 | 7.0 | 0.00 | 0.00 | 0.00 | 43 |